Location: Nitra
(0.0000°N, 18.0833°E)
Time: 23:40:24
(UTC+01:00)

Ariane H10-3 - Visible Passes

Search period start: 22 March 2023 00:00
Search period end: 01 April 2023 01:00
Orbit: 731 x 73933 km, 4.9° (Epoch: 21 March)

Date Brightness Start Highest point End Pass type
(mag) Time Alt. Az. Time Alt. Az. Time Alt. Az.
22 Mar 10.0 16:00:10 10° W 17:20:51 35° W 20:40:18 10° W visible
23 Mar 12.2 17:56:20 10° W 18:39:49 14° W 19:42:04 10° W visible
25 Mar 8.0 13:09:01 10° E 17:02:27 42° E 18:26:33 10° E visible
26 Mar 7.6 13:41:11 10° E 19:25:20 65° E 20:43:46 32° E visible
27 Mar 7.3 13:18:55 10° E 21:06:19 88° NNE 22:00:04 60° E visible
28 Mar 7.3 12:59:22 10° E 19:18:01 86° N 23:16:22 86° SW visible
29 Mar 7.5 12:41:10 10° E 18:46:18 86° N 00:32:39 54° W visible
30 Mar 7.9 12:23:30 10° E 18:22:38 86° N 01:48:56 26° W visible
31 Mar 11.4 12:05:38 10° E 18:02:25 86° N 00:25:39 10° W visible
31 Mar 11.4 12:05:39 10° E 18:02:25 86° N 00:25:39 10° W visible
